GW0392 Weather Reports


Display with metric or nautical units.
time (UTC)temp
F
wind
direction
speed
MPH
gust
MPH
rain 1hr
in
rain 24hr
in
rain mn
in
humidity
%
barometer
mb
20260509193607 76 217 1.0 1.0 0.00 0.00 0.00 65 1010.9
20260509193103 76 228 0.0 1.0 0.00 0.00 0.00 64 1010.8
20260509192600 76 226 0.0 1.0 0.00 0.00 0.00 61 1010.9
20260509192055 75 227 0.0 1.0 0.00 0.00 0.00 62 1011.1
20260509191555 75 225 1.0 3.0 0.00 0.00 0.00 61 1011.2
20260509191051 75 228 0.0 0.0 0.00 0.00 0.00 62 1011.1
20260509190548 75 229 0.0 2.0 0.00 0.00 0.00 61 1011.0
20260509190046 75 220 1.0 2.0 0.00 0.00 0.00 60 1011.3
20260509185543 75 223 0.0 1.0 0.00 0.00 0.00 64 1011.6
20260509185039 75 256 1.0 2.0 0.00 0.00 0.00 60 1011.3
20260509184538 76 238 1.0 1.0 0.00 0.00 0.00 64 1011.3
20260509184033 75 231 0.0 1.0 0.00 0.00 0.00 63 1011.4
20260509183529 75 237 1.0 1.0 0.00 0.00 0.00 62 1011.6
20260509183025 75 233 1.0 2.0 0.00 0.00 0.00 61 1011.4
20260509182521 75 224 0.0 2.0 0.00 0.00 0.00 63 1011.4
20260509182019 75 238 0.0 1.0 0.00 0.00 0.00 62 1011.4
20260509181517 75 239 1.0 1.0 0.00 0.00 0.00 63 1011.6
20260509181014 75 214 1.0 1.0 0.00 0.00 0.00 61 1011.4
20260509180509 75 246 1.0 2.0 0.00 0.00 0.00 62 1011.1
20260509180008 76 266 2.0 3.0 0.00 0.00 0.00 62 1011.2
20260509175502 76 235 1.0 1.0 0.00 0.00 0.00 61 1011.2
20260509174959 76 274 2.0 2.0 0.00 0.00 0.00 61 1010.9
20260509174456 76 236 1.0 1.0 0.00 0.00 0.00 61 1011.1
20260509173950 75 245 0.0 2.0 0.00 0.00 0.00 63 1010.9
20260509173451 75 241 1.0 1.0 0.00 0.00 0.00 64 1011.2
20260509172948 74 292 2.0 3.0 0.00 0.00 0.00 65 1011.4
20260509172445 74 148 3.0 5.0 0.00 0.00 0.00 65 1011.5
20260509171940 74 132 2.0 6.0 0.00 0.00 0.00 67 1011.8
20260509171437 73 209 5.0 7.0 0.00 0.00 0.00 67 1011.9
20260509170933 74 216 2.0 3.0 0.00 0.00 0.00 66 1011.8
20260509170429 74 226 2.0 3.0 0.00 0.00 0.00 64 1011.7
20260509165925 72 223 1.0 5.0 0.00 0.00 0.00 67 1011.9
20260509165419 73 207 0.0 3.0 0.00 0.00 0.00 69 1011.9
20260509164914 72 222 1.0 2.0 0.00 0.00 0.00 71 1012.0
20260509164411 72 222 1.0 1.0 0.00 0.00 0.00 69 1012.0
20260509163907 72 221 0.0 1.0 0.00 0.00 0.00 71 1012.0
20260509163404 72 222 0.0 1.0 0.00 0.00 0.00 69 1012.4
20260509162903 71 223 1.0 3.0 0.00 0.00 0.00 71 1012.4
20260509162402 71 233 1.0 2.0 0.00 0.00 0.00 70 1011.9
20260509161858 70 221 0.0 1.0 0.00 0.00 0.00 71 1012.2
20260509161354 70 222 1.0 3.0 0.00 0.00 0.00 71 1012.2
20260509160850 70 199 1.0 3.0 0.00 0.00 0.00 72 1012.3
20260509160346 70 219 0.0 6.0 0.00 0.00 0.00 72 1012.3
20260509155841 70 227 0.0 1.0 0.00 0.00 0.00 73 1012.5
20260509155338 69 222 0.0 2.0 0.00 0.00 0.00 74 1012.5
20260509154834 69 224 2.0 2.0 0.00 0.00 0.00 73 1012.7
20260509154331 69 221 1.0 2.0 0.00 0.00 0.00 75 1012.8
20260509153828 68 222 0.0 2.0 0.00 0.00 0.00 76 1012.8
20260509153324 68 216 1.0 5.0 0.00 0.00 0.00 75 1012.7
20260509152822 68 217 1.0 3.0 0.00 0.00 0.00 77 1012.9
20260509152317 67 212 1.0 2.0 0.00 0.00 0.00 78 1012.9
20260509151815 67 190 2.0 2.0 0.00 0.00 0.00 78 1012.8
20260509151311 66 225 0.0 3.0 0.00 0.00 0.00 80 1013.0
20260509150810 65 227 0.0 3.0 0.00 0.00 0.00 80 1012.9
20260509150307 66 223 1.0 1.0 0.00 0.00 0.00 81 1012.8
20260509145804 65 185 1.0 1.0 0.00 0.00 0.00 81 1013.0
20260509145306 65 216 1.0 2.0 0.00 0.00 0.00 82 1012.9
20260509144800 64 221 0.0 2.0 0.00 0.00 0.00 82 1012.7
20260509144257 64 195 1.0 2.0 0.00 0.00 0.00 83 1013.1
20260509143754 64 231 0.0 1.0 0.00 0.00 0.00 85 1013.1
20260509143252 64 229 0.0 1.0 0.00 0.00 0.00 87 1013.2
20260509142748 64 236 1.0 1.0 0.00 0.00 0.00 86 1012.9
20260509142244 63 223 1.0 1.0 0.00 0.00 0.00 85 1012.8
20260509141740 63 185 1.0 2.0 0.00 0.00 0.00 86 1012.4
20260509141237 63 241 0.0 3.0 0.00 0.00 0.00 85 1012.5
20260509140734 63 228 0.0 0.0 0.00 0.00 0.00 86 1012.4
20260509140231 63 218 1.0 2.0 0.00 0.00 0.00 86 1012.0
20260509135728 64 227 0.0 0.0 0.00 0.00 0.00 86 1012.0
20260509135226 64 223 0.0 0.0 0.00 0.00 0.00 85 1012.4
20260509134722 63 171 1.0 2.0 0.00 0.00 0.00 86 1012.1
20260509134220 63 177 2.0 3.0 0.00 0.00 0.00 85 1012.3
20260509133717 62 208 1.0 5.0 0.00 0.00 0.00 86 1012.2
20260509133214 62 191 1.0 3.0 0.00 0.00 0.00 87 1012.2
20260509132713 61 223 1.0 2.0 0.00 0.00 0.00 88 1012.4
20260509132211 60 162 1.0 3.0 0.00 0.00 0.00 88 1012.4
20260509131707 60 223 0.0 1.0 0.00 0.00 0.00 89 1012.3
20260509131204 60 226 0.0 1.0 0.00 0.00 0.00 89 1012.4
20260509130659 59 228 0.0 0.0 0.00 0.00 0.00 90 1012.2
20260509130156 59 223 0.0 0.0 0.00 0.00 0.00 90 1012.3
20260509125652 58 226 0.0 1.0 0.00 0.00 0.00 91 1012.0
20260509125149 58 219 0.0 1.0 0.00 0.00 0.00 91 1012.2
20260509124646 58 224 0.0 0.0 0.00 0.00 0.00 92 1012.5
20260509124143 57 224 0.0 0.0 0.00 0.00 0.00 92 1012.5
20260509123641 57 224 0.0 0.0 0.00 0.00 0.00 93 1012.7
20260509123137 57 225 0.0 0.0 0.00 0.00 0.00 95 1012.5
20260509122633 56 225 0.0 0.0 0.00 0.00 0.00 96 1012.2
20260509122130 56 225 0.0 0.0 0.00 0.00 0.00 96 1012.3
20260509121626 56 225 0.0 0.0 0.00 0.00 0.00 97 1012.2
20260509121125 55 225 0.0 0.0 0.00 0.00 0.00 98 1012.3
20260509120622 55 224 0.0 0.0 0.00 0.00 0.00 98 1012.3
20260509120120 55 224 0.0 0.0 0.00 0.00 0.00 99 1012.1
20260509115617 55 225 0.0 0.0 0.00 0.00 0.00 99 1012.4
20260509115115 55 225 0.0 0.0 0.00 0.00 0.00 99 1012.0
20260509114613 55 225 0.0 0.0 0.00 0.00 0.00 99 1012.1
20260509114112 54 225 0.0 0.0 0.00 0.00 0.00 99 1012.0
20260509113609 54 225 0.0 0.0 0.00 0.00 0.00 99 1012.0
20260509113107 54 224 0.0 0.0 0.00 0.00 0.00 99 1012.1
20260509112603 54 229 0.0 0.0 0.00 0.00 0.00 99 1012.3
20260509112100 54 227 0.0 0.0 0.00 0.00 0.00 99 1012.1
20260509111557 53 227 0.0 0.0 0.00 0.00 0.00 99 1012.1
20260509111054 53 227 0.0 0.0 0.00 0.00 0.00 99 1011.9
20260509110551 53 226 0.0 0.0 0.00 0.00 0.00 99 1011.6
20260509110048 53 228 0.0 0.0 0.00 0.00 0.00 99 1012.0
20260509105547 53 227 0.0 0.0 0.00 0.00 0.00 99 1012.1
20260509105044 53 229 0.0 0.0 0.00 0.00 0.00 99 1011.7
20260509104541 53 229 0.0 0.0 0.00 0.00 0.00 99 1011.8
20260509104037 53 229 0.0 0.0 0.00 0.00 0.00 99 1011.9
20260509103535 52 231 0.0 0.0 0.00 0.00 0.00 99 1011.8
20260509103033 52 231 0.0 0.0 0.00 0.00 0.00 99 1012.0
20260509102530 52 231 0.0 0.0 0.00 0.00 0.00 99 1011.8
20260509102027 52 231 0.0 0.0 0.00 0.00 0.00 99 1011.8
20260509101523 52 231 0.0 0.0 0.00 0.00 0.00 99 1011.8
20260509101020 52 227 0.0 0.0 0.00 0.00 0.00 99 1011.6
20260509100517 52 233 0.0 0.0 0.00 0.00 0.00 99 1011.8
20260509100015 52 233 0.0 0.0 0.00 0.00 0.00 99 1011.8
20260509095511 51 233 0.0 0.0 0.00 0.00 0.00 99 1011.9
20260509095009 51 233 0.0 0.0 0.00 0.00 0.00 99 1011.9
20260509094505 51 236 0.0 0.0 0.00 0.00 0.00 99 1011.5
20260509094002 51 233 0.0 0.0 0.00 0.00 0.00 99 1011.8
20260509093500 52 233 0.0 0.0 0.00 0.00 0.00 99 1011.6
20260509092957 52 236 0.0 0.0 0.00 0.00 0.00 99 1011.5
20260509092455 52 233 0.0 0.0 0.00 0.00 0.00 99 1011.7
20260509091954 52 235 0.0 0.0 0.00 0.00 0.00 99 1011.9
20260509091450 52 232 0.0 0.0 0.00 0.00 0.00 99 1012.2
20260509090947 52 231 0.0 0.0 0.00 0.00 0.00 99 1012.1
20260509090445 52 228 0.0 0.0 0.00 0.00 0.00 99 1011.9
20260509085942 52 226 0.0 0.0 0.00 0.00 0.00 99 1011.7
20260509085439 52 241 0.0 0.0 0.00 0.00 0.00 99 1012.2
20260509084935 52 229 0.0 0.0 0.00 0.00 0.00 99 1011.9
20260509084432 51 229 0.0 0.0 0.00 0.00 0.00 99 1012.3
20260509083930 51 228 0.0 0.0 0.00 0.00 0.00 99 1012.5
20260509083427 51 228 0.0 0.0 0.00 0.00 0.00 99 1012.4
20260509082923 51 228 0.0 0.0 0.00 0.00 0.00 99 1012.3
20260509082421 51 226 0.0 0.0 0.00 0.00 0.00 99 1012.4
20260509081917 50 225 0.0 0.0 0.00 0.00 0.00 99 1012.2
20260509081415 50 223 0.0 0.0 0.00 0.00 0.00 99 1012.1
20260509080912 50 226 0.0 0.0 0.00 0.00 0.00 99 1012.1
20260509080410 50 222 0.0 0.0 0.00 0.00 0.00 99 1012.1
20260509075908 50 226 0.0 0.0 0.00 0.00 0.00 99 1012.0
20260509075405 50 225 0.0 0.0 0.00 0.00 0.00 99 1012.2
20260509074902 50 225 0.0 0.0 0.00 0.00 0.00 99 1012.0
20260509074400 50 225 0.0 0.0 0.00 0.00 0.00 99 1011.9
20260509073855 50 226 0.0 0.0 0.00 0.00 0.00 99 1012.0
20260509073352 50 226 0.0 0.0 0.00 0.00 0.00 99 1012.0
20260509072849 50 225 0.0 0.0 0.00 0.00 0.00 99 1011.9
20260509072345 50 225 0.0 0.0 0.00 0.00 0.00 99 1012.0
20260509071842 50 225 0.0 0.0 0.00 0.00 0.00 99 1011.7
20260509071339 50 233 0.0 0.0 0.00 0.00 0.00 99 1011.8
20260509070836 50 228 0.0 0.0 0.00 0.00 0.00 99 1011.7
20260509070333 50 227 0.0 0.0 0.00 0.00 0.00 99 1011.8
20260509065829 50 227 0.0 0.0 0.00 0.00 0.00 99 1011.8
20260509065326 50 227 0.0 0.0 0.00 0.00 0.00 99 1012.0
20260509064821 50 227 0.0 0.0 0.00 0.00 0.00 99 1012.1
20260509064319 50 228 0.0 0.0 0.00 0.00 0.00 99 1012.4
20260509063817 50 227 0.0 0.0 0.00 0.00 0.00 99 1012.1
20260509063313 50 227 0.0 0.0 0.00 0.00 0.00 99 1012.2
20260509062810 51 230 0.0 0.0 0.00 0.00 0.00 99 1012.0
20260509062308 50 231 0.0 0.0 0.00 0.00 0.00 99 1012.3
20260509061804 50 231 0.0 0.0 0.00 0.00 0.00 99 1012.3
20260509061302 50 224 0.0 0.0 0.00 0.00 0.00 99 1012.5
20260509060759 50 224 0.0 0.0 0.00 0.00 0.00 99 1012.3
20260509060256 50 224 0.0 0.0 0.00 0.00 0.00 99 1012.5
20260509055751 50 224 0.0 0.0 0.00 0.00 0.00 99 1012.7
20260509055247 50 224 0.0 0.0 0.00 0.00 0.00 98 1012.8
20260509054744 50 224 0.0 0.0 0.00 0.00 0.00 98 1012.9
20260509054241 50 224 0.0 0.0 0.00 0.00 0.00 98 1012.9
20260509053739 50 224 0.0 0.0 0.00 0.00 0.00 98 1013.0
20260509053236 50 223 0.0 0.0 0.00 0.00 0.00 98 1013.2
20260509052734 51 223 0.0 0.0 0.00 0.00 0.00 98 1013.0
20260509052231 51 224 0.0 0.0 0.00 0.00 0.00 98 1012.9
20260509051729 51 224 0.0 0.0 0.00 0.00 0.00 97 1013.1
20260509051227 51 224 0.0 0.0 0.00 0.00 0.00 97 1013.0
20260509050723 51 224 0.0 0.0 0.00 0.00 0.00 97 1013.1
20260509050219 51 224 0.0 0.0 0.00 0.00 0.00 97 1013.2
20260509045717 51 224 0.0 0.0 0.00 0.00 0.00 97 1013.1
20260509045214 51 225 0.0 0.0 0.00 0.00 0.00 97 1013.1
20260509044711 51 225 0.0 0.0 0.00 0.00 0.00 96 1013.0
20260509044209 51 224 0.0 0.0 0.00 0.00 0.00 96 1012.9
20260509043705 52 225 0.0 0.0 0.00 0.00 0.00 96 1013.0
20260509043201 52 224 0.0 0.0 0.00 0.00 0.00 96 1013.1
20260509042657 52 225 0.0 0.0 0.00 0.00 0.00 95 1013.5
20260509042153 52 225 0.0 0.0 0.00 0.00 0.00 95 1013.4
20260509041650 52 224 0.0 0.0 0.00 0.00 0.00 95 1013.3
20260509041148 52 224 0.0 0.0 0.00 0.00 0.00 95 1013.4
20260509040646 52 224 0.0 0.0 0.00 0.00 0.00 95 1013.4
20260509040142 53 224 0.0 0.0 0.00 0.00 0.00 94 1013.6
20260509035639 53 223 0.0 0.0 0.00 0.00 0.00 94 1013.5
20260509035136 53 225 0.0 0.0 0.00 0.00 0.00 93 1013.7
20260509034634 53 225 0.0 0.0 0.00 0.00 0.00 93 1013.6
20260509034131 53 225 0.0 0.0 0.00 0.00 0.00 93 1013.4
20260509033627 54 225 0.0 0.0 0.00 0.00 0.00 93 1013.4
20260509033124 54 225 0.0 0.0 0.00 0.00 0.00 92 1013.5
20260509032622 54 225 0.0 0.0 0.00 0.00 0.00 92 1013.5
20260509032118 54 225 0.0 0.0 0.00 0.00 0.00 92 1013.6
20260509031617 54 225 0.0 0.0 0.00 0.00 0.00 92 1013.6
20260509031114 54 224 0.0 0.0 0.00 0.00 0.00 91 1013.4
20260509030612 55 223 0.0 0.0 0.00 0.00 0.00 91 1013.5
20260509030108 55 223 0.0 0.0 0.00 0.00 0.00 91 1013.8
20260509025605 55 224 0.0 0.0 0.00 0.00 0.00 91 1013.9
20260509025100 55 224 0.0 0.0 0.00 0.00 0.00 90 1013.7
20260509024556 55 225 0.0 0.0 0.00 0.00 0.00 89 1013.8
20260509024052 55 225 0.0 0.0 0.00 0.00 0.00 89 1013.8
20260509023550 56 225 0.0 0.0 0.00 0.00 0.00 88 1013.8
20260509023047 56 225 0.0 0.0 0.00 0.00 0.00 87 1013.8
20260509022543 56 225 0.0 0.0 0.00 0.00 0.00 87 1013.7
20260509022041 56 225 0.0 0.0 0.00 0.00 0.00 86 1013.7
20260509021538 57 225 0.0 0.0 0.00 0.00 0.00 86 1013.4
20260509021035 57 225 0.0 0.0 0.00 0.00 0.00 85 1013.3
20260509020533 57 225 0.0 0.0 0.00 0.00 0.00 86 1013.3
20260509020030 57 225 0.0 0.0 0.00 0.00 0.00 85 1013.5
20260509015529 57 225 0.0 0.0 0.00 0.00 0.00 85 1013.2
20260509015026 57 225 0.0 0.0 0.00 0.00 0.00 84 1013.3
20260509014522 58 225 0.0 0.0 0.00 0.00 0.00 83 1013.4
20260509014019 58 225 0.0 0.0 0.00 0.00 0.00 83 1013.2
20260509013516 58 225 0.0 0.0 0.00 0.00 0.00 84 1013.1
20260509013011 58 225 0.0 0.0 0.00 0.00 0.00 83 1013.2
20260509012508 59 225 0.0 0.0 0.00 0.00 0.00 83 1013.2
20260509012005 59 225 0.0 0.0 0.00 0.00 0.00 81 1013.2
20260509011503 59 225 0.0 0.0 0.00 0.00 0.00 81 1013.2
20260509011000 60 225 0.0 0.0 0.00 0.00 0.00 80 1013.4
20260509010458 60 225 0.0 0.0 0.00 0.00 0.00 80 1013.5
20260509005954 60 225 0.0 0.0 0.00 0.00 0.00 78 1013.3
20260509005452 61 225 0.0 0.0 0.00 0.00 0.00 78 1013.4
20260509004952 61 225 0.0 0.0 0.00 0.00 0.00 77 1013.4
20260509004449 62 226 0.0 0.0 0.00 0.00 0.00 75 1013.3
20260509003947 62 226 0.0 0.0 0.00 0.00 0.00 75 1013.3
20260509003445 62 226 0.0 0.0 0.00 0.00 0.00 75 1013.3
20260509002941 63 226 0.0 0.0 0.00 0.00 0.00 73 1013.2
20260509002439 63 226 0.0 0.0 0.00 0.00 0.00 73 1013.2
20260509001936 64 226 0.0 0.0 0.00 0.00 0.00 72 1013.3
20260509001432 64 227 0.0 0.0 0.00 0.00 0.00 71 1013.2
20260509000929 65 227 0.0 0.0 0.00 0.00 0.00 70 1013.3
20260509000427 65 229 0.0 0.0 0.00 0.00 0.00 67 1013.3
20260508235923 66 229 0.0 0.0 0.00 0.00 0.00 67 1013.2
20260508235421 66 229 0.0 0.0 0.00 0.00 0.00 64 1013.0
20260508234917 67 230 0.0 0.0 0.00 0.00 0.00 65 1013.1
20260508234414 67 227 0.0 0.0 0.00 0.00 0.00 62 1013.1
20260508233912 68 220 1.0 1.0 0.00 0.00 0.00 57 1013.0
20260508233411 68 220 0.0 1.0 0.00 0.00 0.00 59 1013.1
20260508232908 68 224 0.0 2.0 0.00 0.00 0.00 52 1012.7
20260508232404 68 207 1.0 2.0 0.00 0.00 0.00 54 1013.0
20260508231902 68 224 0.0 0.0 0.00 0.00 0.00 52 1012.9
20260508231359 69 227 0.0 1.0 0.00 0.00 0.00 52 1012.9
20260508230856 69 229 0.0 1.0 0.00 0.00 0.00 52 1012.9
20260508230352 69 221 3.0 5.0 0.00 0.00 0.00 51 1013.1
20260508225850 69 225 0.0 1.0 0.00 0.00 0.00 52 1013.3
20260508225346 69 204 4.0 6.0 0.00 0.00 0.00 51 1013.3
20260508224844 69 225 1.0 1.0 0.00 0.00 0.00 59 1013.1
20260508224341 69 202 2.0 3.0 0.00 0.00 0.00 52 1013.2
20260508223839 69 226 1.0 1.0 0.00 0.00 0.00 59 1013.4
20260508223336 69 226 3.0 3.0 0.00 0.00 0.00 51 1013.3
20260508222833 69 225 0.0 1.0 0.00 0.00 0.00 56 1013.3
20260508222330 69 226 0.0 0.0 0.00 0.00 0.00 51 1013.3
20260508221827 69 226 0.0 2.0 0.00 0.00 0.00 49 1013.4
20260508221322 69 215 2.0 2.0 0.00 0.00 0.00 50 1013.2
20260508220819 69 221 1.0 2.0 0.00 0.00 0.00 51 1013.2
20260508220315 69 227 0.0 0.0 0.00 0.00 0.00 53 1013.5
20260508215812 69 219 0.0 2.0 0.00 0.00 0.00 48 1013.4
20260508215309 70 219 1.0 2.0 0.00 0.00 0.00 49 1013.3
20260508214806 70 224 0.0 0.0 0.00 0.00 0.00 47 1013.3
20260508214303 70 225 0.0 0.0 0.00 0.00 0.00 52 1013.3
20260508213759 70 237 0.0 1.0 0.00 0.00 0.00 48 1013.2
20260508213256 70 242 1.0 1.0 0.00 0.00 0.00 54 1013.1
20260508212753 70 230 0.0 1.0 0.00 0.00 0.00 46 1013.0
20260508212249 70 232 0.0 0.0 0.00 0.00 0.00 44 1013.1
20260508211745 70 228 0.0 0.0 0.00 0.00 0.00 47 1013.2
20260508211240 70 225 0.0 1.0 0.00 0.00 0.00 45 1013.3
20260508210738 70 226 0.0 1.0 0.00 0.00 0.00 46 1013.4
20260508210235 71 228 0.0 0.0 0.00 0.00 0.00 44 1013.6
20260508205732 71 223 1.0 2.0 0.00 0.00 0.00 49 1013.5
20260508205228 71 227 0.0 0.0 0.00 0.00 0.00 44 1013.5
20260508204725 71 307 1.0 1.0 0.00 0.00 0.00 43 1013.7
20260508204221 71 226 0.0 1.0 0.00 0.00 0.00 49 1013.8
20260508203717 70 166 1.0 3.0 0.00 0.00 0.00 41 1013.7
20260508203213 70 197 1.0 2.0 0.00 0.00 0.00 43 1013.7
20260508202710 70 225 0.0 1.0 0.00 0.00 0.00 42 1013.7
20260508202207 70 216 1.0 1.0 0.00 0.00 0.00 50 1013.7
20260508201704 70 226 0.0 1.0 0.00 0.00 0.00 44 1013.6
20260508201200 70 223 1.0 2.0 0.00 0.00 0.00 40 1013.7
20260508200657 69 219 1.0 2.0 0.00 0.00 0.00 39 1013.7
20260508200153 70 225 0.0 2.0 0.00 0.00 0.00 41 1013.9
20260508195650 70 210 0.0 2.0 0.00 0.00 0.00 39 1014.1
20260508195147 70 228 0.0 1.0 0.00 0.00 0.00 42 1014.1
20260508194643 70 223 1.0 1.0 0.00 0.00 0.00 42 1014.3
20260508194140 70 219 1.0 1.0 0.00 0.00 0.00 47 1014.2